Home   Weather   Plzen   Past weeks

Flag for Czech Republic Past Weather in Plzen, Czech Republic — Yesterday and Last 2 Weeks

Now
43 °F

Quite cool.


Feels Like: 40 °F
Forecast: 47 / 54 °F
Wind: 5 mph from Southwest

Location: Kocelovice

Current Time: Feb 22, 2017 at 5:14:45 am

Latest Report: Feb 22, 2017 at 4:00 am


Visibility: 6 mi

Pressure: 29.91 "Hg

Humidity: 96%

Dew Point: 42 °F

Location of PlzenLocation

Past Weather in Plzen — Graph

°F

Plzen Temperature Yesterday

Maximum temperature yesterday: 49 °F (at 2:00 pm)
Minimum temperature yesterday: 41 °F (at 11:00 pm)
Average temperature yesterday: 44 °F

High & Low Weather Summary for the Past Weeks

 TemperatureHumidityPressure
High52 °F (Feb 16, 3:00 pm)100% (Feb 17, 8:00 am)30.67 "Hg (Feb 17, 8:00 am)
Low22 °F (Feb 14, 7:00 am)40% (Feb 15, 4:00 pm)29.85 "Hg (Feb 21, 2:00 pm)
Average33 °F83%30.32 "Hg
* Reported Feb 7 3:00 am — Feb 22 3:00 am, Plzen, Weather by CustomWeather, © 2017

Note: Actual official high and low records may vary slightly from our data, if they occured in-between our weather recording intervals... More about our weather records

Advertising

Plzen Weather History for the Previous 24 Hours

Scroll right to see more
 ConditionsComfort  
Time TempWeatherWind HumidityBarometerVisibility
3:00 am
Wed, Feb 22
42 °FDrizzle. Overcast.3 mph95%29.94 "Hg4 mi
2:00 am42 °FQuite cool.5 mph92%29.96 "Hg7 mi
1:00 am40 °FChilly.6 mph93%29.99 "Hg7 mi
12:00 am40 °FQuite cool.6 mph90%29.99 "Hg9 mi
11:00 pm
Tue, Feb 21
41 °FQuite cool.7 mph91%30.00 "Hg9 mi
10:00 pm41 °FQuite cool.5 mph90%30.00 "Hg11 mi
9:00 pm42 °FPassing clouds.3 mph88%30.00 "Hg16 mi
8:00 pm43 °FPassing clouds.5 mph85%29.99 "Hg16 mi
7:00 pm45 °FOvercast.6 mph78%29.97 "Hg16 mi
6:00 pm44 °FOvercast.5 mph78%29.95 "Hg14 mi
5:00 pm46 °FPartly sunny.5 mph76%29.92 "Hg14 mi
4:00 pm48 °FOvercast.8 mph69%29.89 "Hg14 mi
3:00 pm49 °FOvercast.14 mph68%29.87 "Hg14 mi
2:00 pm49 °FPartly sunny.14 mph74%29.85 "Hg14 mi
1:00 pm47 °FSprinkles. Low clouds.9 mph93%29.87 "Hg12 mi
12:00 pm46 °FLight rain. Low clouds.10 mph96%29.88 "Hg3 mi
11:00 am46 °FOvercast.12 mph92%29.86 "Hg12 mi
10:00 am45 °FLow clouds.8 mph92%29.86 "Hg12 mi
9:00 am44 °FLight rain. Low clouds.10 mph94%29.89 "Hg7 mi
8:00 am44 °FLight rain. Low clouds.9 mph95%29.88 "Hg3 mi
7:00 am44 °FLight rain. Low clouds.9 mph93%29.88 "Hg2 mi
6:00 am44 °FLight rain. Overcast.8 mph92%29.88 "Hg11 mi
5:00 am43 °FRain. Overcast.9 mph96%29.90 "Hg4 mi
Weather by CustomWeather, © 2017

See weather overviewHow to use our weather pages